www.pogodaiklimat.ru

Погода и климат >> Архив погоды >> Малайзия >> Kuala Lumpur


АРХИВ ПОГОДЫ в Kuala Lumpur

Время (UTC), дата Ветер
(напр.,м/с)
 
Видим.   Явления Облачность Т
(С)
Тd
(С)
f
(%)
Тe
(С)
Тes
(С)
Комфортность P
(гПа)
Po
(гПа)
Тmin
(С)
Tmax
(С)
R
(мм)
R24
(мм)
S
(см)
12 11.12 штиль 0 10 км мгла 9/1 600 м
[Cu Sc Ac lent Ci sp]
+25.9 +23.7 88 +35 +35 очень
душно
1011.5 1009.0 +30.9
15 11.12 штиль 0 9000 м мгла 9/1 800 м
[Sc Ac trans Ci fib]
+25.8 +24.1 90 +36 +36 очень
душно
1013.6 1011.1
18 11.12 штиль 0 7000 м мгла 9/1 800 м
[Sc Ac trans Ci fib]
+25.1 +23.5 91 +34 +34 очень
душно
1012.6 1010.1
21 11.12 штиль 0 6000 м зарница 9/3 500 м
[Cb cap Ac trans Ci fib]
+24.5 +23.3 93 +33 +33 очень
душно
1011.0 1008.5
00 12.12 штиль 0 8000 м мгла 9/4 500 м
[Cb cap Ac trans Ci sp]
+24.7 +23.5 93 +33 +34 очень
душно
1012.8 1010.3 +24.3
03 12.12 З 2 12 км осадки на расстоянии 9/4 500 м
[Cb cap Ac trans Ci sp]
+30.5 +25.0 73 +44 +49 опасность
перегрева
1013.9 1011.4
06 12.12 С 2 15 км мгла 9/3 500 м
[Cb cap Ac lent Ci sp]
+32.4 +24.5 63 +45 +52 опасность
перегрева
1011.2 1008.7
09 12.12 ЮЗ 3 15 км мгла 9/3 500 м
[Cb cap Ac trans Ci sp]
+28.7 +24.8 79 +41 +43 опасность
перегрева
1009.5 1007.0
12 12.12 ЮВ 2 9000 м мгла 9/3 800 м
[Sc Ac lent Cs]
+27.3 +24.3 84 +38 +38 очень
душно
1011.0 1008.5 +32.9
15 12.12 штиль 0 9000 м мгла 9/1 800 м
[Sc Ac lent Ci sp]
+26.5 +24.3 88 +37 +37 очень
душно
1012.2 1009.7
18 12.12 штиль 0 8000 м мгла 9/1 750 м
[Sc Ac lent Ci sp]
+25.7 +24.3 92 +36 +36 очень
душно
1011.7 1009.2
21 12.12 штиль 0 7000 м зарница 9/1 500 м
[Cb cap Ac lent Ci sp]
+25.5 +24.2 93 +35 +35 очень
душно
1011.1 1008.6
00 13.12 штиль 0 5000 м мгла 9/1 600 м
[Cu med, cong Ac trans Ci sp]
+25.5 +24.2 93 +35 +36 очень
душно
1012.4 1009.9 +24.8
03 13.12 СЗ 3 12 км мгла 9/3 570 м
[Cu med, cong Ac trans Ci fib]
+30.4 +24.4 70 +42 +46 опасность
перегрева
1013.4 1010.9
06 13.12 СЗ 3 12 км мгла 9/4 570 м
[Cu med, cong Ac trans Ci fib]
+32.4 +24.7 64 +45 +50 опасность
перегрева
1010.9 1008.4
09 13.12 З 4 12 км мгла 9/3 570 м
[Cu med, cong Ac trans Ci fib]
+31.9 +25.3 68 +46 +47 опасность
перегрева
1008.6 1006.1
12 13.12 ЮЗ 2 10 км мгла 9/1 800 м
[Sc Ac trans Ci sp]
+28.1 +24.9 83 +40 +40 очень
душно
1010.6 1008.1 +33.0
15 13.12 штиль 0 7000 м мгла 9/1 800 м
[Sc Ac trans Ci sp]
+27.0 +24.8 88 +39 +39 очень
душно
1012.4 1009.9
18 13.12 штиль 0 4000 м зарница 9/3 500 м
[Cb cap Ac trans Ci sp]
+26.0 +24.4 91 +36 +36 очень
душно
1011.6 1009.1
21 13.12 штиль 0 8000 м в посл. час дождь 9/3 500 м
[Cb cap Ac lent Ci sp]
+25.6 +24.6 94 +36 +36 очень
душно
1010.6 1008.1
00 14.12 штиль 0 5000 м мгла {дождь} 9/3 500 м
[Cb cap Ac trans Ci sp]
+25.6 +24.3 93 +36 +36 очень
душно
1012.2 1009.7 +25.4 2
03 14.12 СЗ 3 12 км мгла 9/4 540 м
[Cu med, cong Ac trans Ci sp]
+30.2 +24.1 70 +42 +46 опасность
перегрева
1013.3 1010.8
06 14.12 З 3 15 км мгла 9/5 500 м
[Cb cap Ac trans Ci sp]
+32.8 +23.6 59 +44 +48 опасность
перегрева
1010.5 1008.0
09 14.12 З 4 15 км мгла 9/3 540 м
[Cu med, cong Ac trans Ci sp]
+31.7 +23.2 61 +42 +44 опасность
перегрева
1008.8 1006.3
12 14.12 З 2 10 км мгла 9/3 800 м
[Sc diur, vesp Ac trans Ci fib]
+28.3 +24.1 78 +39 +39 очень
душно
1010.3 1007.8 +33.3
15 14.12 штиль 0 8000 м мгла 9/4 750 м
[Sc Ac trans Ci sp]
+27.3 +24.4 84 +38 +38 очень
душно
1012.4 1009.9
18 14.12 СЗ 2 8000 м мгла 9/4 750 м
[Sc Ac trans Ci sp]
+26.6 +24.3 87 +37 +37 очень
душно
1011.4 1008.9
21 14.12 штиль 0 8000 м мгла 9/3 750 м
[Sc Ac trans Ci sp]
+25.8 +24.0 90 +36 +36 очень
душно
1010.1 1007.6
00 15.12 штиль 0 4000 м мгла 9/4 500 м
[Cb cap Ac trans Ci fib]
+25.5 +23.9 91 +35 +35 очень
душно
1011.9 1009.4 +25.0
03 15.12 СЗ 2 6000 м мгла 9/1 600 м
[Cu med, cong Ac lent Ci sp]
+29.3 +24.5 75 +41 +47 опасность
перегрева
1012.5 1010.0
06 15.12 СЗ 3 14 км мгла 9/3 600 м
[Cu med, cong Ac trans Ci sp]
+33.1 +22.7 54 +43 +48 опасность
перегрева
1009.7 1007.2
09 15.12 СЗ 6 15 км мгла 8/1 500 м
[Cb cap Ac trans Ci sp]
+32.3 +24.4 63 +45 +46 опасность
перегрева
1007.7 1005.2
12 15.12 З 1 12 км мгла 9/1 800 м
[Sc diur, vesp Ac lent Ci sp]
+28.7 +24.4 78 +41 +41 опасность
перегрева
1010.5 1008.0 +33.9
15 15.12 С 1 10 км зарница 9/4 500 м
[Cb cap Ac lent Ci fib]
+28.4 +24.5 79 +40 +40 очень
душно
1012.4 1009.9
18 15.12 С 1 9000 м зарница 9/3 500 м
[Cb cap Ac trans Ci fib]
+27.0 +24.3 85 +38 +38 очень
душно
1011.3 1008.8
21 15.12 штиль 0 8000 м зарница 9/3 500 м
[Cb cap Ac trans Ci fib]
+25.7 +23.9 90 +35 +35 очень
душно
1010.1 1007.6
00 16.12 штиль 0 8000 м мгла 9/3 500 м
[Cb cap Ac trans Ci sp]
+25.6 +23.9 90 +35 +35 очень
душно
1012.0 1009.5 +25.1
03 16.12 С 1 12 км мгла 9/3 570 м
[Cu med, cong Ac trans Ci fib]
+31.0 +23.8 66 +43 +49 опасность
перегрева
1012.3 1009.8
06 16.12 Ю 4 10 км осадки на расстоянии 9/4 500 м
[Cb cap Ac trans Ci fib]
+32.2 +23.7 61 +44 +47 опасность
перегрева
1010.4 1007.9
09 16.12 Ю 3 9000 м мгла {гроза} 9/4 500 м
[Cb cap Ac trans Ci sp]
+27.6 +22.5 74 +36 +38 очень
душно
1009.4 1006.9
12 16.12 В 1 9000 м в посл. час дождь {гроза} 9/4 570 м
[Cu Sc Ac lent Ci sp]
+25.1 +23.0 88 +33 +33 очень
душно
1011.2 1008.7
15 16.12 СВ 1 10 км мгла 9/1 750 м
[Sc Ac lent Ci sp]
+25.2 +22.6 86 +33 +33 очень
душно
1012.9 1010.4
18 16.12 штиль 0 9000 м мгла 9/1 750 м
[Sc Ac lent Ci sp]
+24.6 +22.7 89 +32 +32 очень
душно
1012.8 1010.3
21 16.12 штиль 0 8000 м мгла 9/1 720 м
[Sc Ac trans Ci sp]
+24.0 +22.8 93 +32 +32 очень
душно
1011.5 1009.0
00 17.12 штиль 0 10 км мгла 9/1 500 м
[Cb cap Ac trans Ci sp]
+24.4 +22.9 91 +32 +33 очень
душно
1013.1 1010.6 +23.9 0.4
03 17.12 С 3 12 км мгла 9/4 500 м
[Cb cap Ac trans Ci fib]
+29.2 +22.8 68 +39 +42 очень
душно
1014.8 1012.3
06 17.12 В 2 12 км мгла 9/3 570 м
[Cu med, cong Ac trans Ci fib]
+32.9 +20.9 49 +40 +47 очень
душно
1011.9 1009.4
09 17.12 ЮЗ 3 9000 м мгла 9/3 570 м
[Cu med, cong Ac trans Ci fib]
+30.4 +23.7 67 +41 +43 опасность
перегрева
1009.5 1007.0
12 17.12 З 2 9000 м мгла 9/1 800 м
[Sc Ac trans Ci sp]
+28.4 +23.5 75 +39 +39 очень
душно
1011.1 1008.6 +34.3
15 17.12 ЮВ 1 9000 м мгла 9/1 800 м
[Sc Ac trans Ci sp]
+27.1 +23.4 80 +37 +37 очень
душно
1013.1 1010.6
18 17.12 штиль 0 8000 м мгла 9/1 750 м
[Sc Ac trans Ci sp]
+25.6 +23.2 87 +34 +34 очень
душно
1012.2 1009.7
21 17.12 штиль 0 8000 м зарница 9/1 500 м
[Cb cap Ac trans Ci sp]
+24.5 +22.5 89 +32 +32 очень
душно
1010.7 1008.2
00 18.12 штиль 0 10 км мгла 8/1 500 м
[Cb cap Ac trans Ci fib]
+24.6 +22.6 89 +32 +33 очень
душно
1011.5 1009.0 +23.9
03 18.12 СВ 2 15 км мгла 9/3 500 м
[Cb cap Ac trans Ci sp]
+31.1 +21.2 56 +39 +44 очень
душно
1013.0 1010.5
06 18.12 З 2 15 км мгла 9/4 540 м
[Cu med, cong Ac trans Ci sp]
+33.5 +22.8 54 +44 +50 опасность
перегрева
1010.8 1008.3

 

Местоположение метеостанции Kuala Lumpur (Малайзия): широта 3.12 долгота 101.55 высота над уровнем моря 22 м.

В архиве по умолчанию представлена погода в Kuala Lumpur за последнюю неделю. Архивные данные за месяц целиком и за предыдущие месяцы, начиная с января 2011 года, Вы можете получить, выбрав интересующий диапазон дат из раскрывающегося списка и нажав кнопку "Ввод!".

Внимание! Время в таблицах - всемирное. Для получения местного времени необходимо прибавить поправку, которая в Kuala Lumpur равна 7 ч.

Смотрите также архив погоды в соседних городах и на ближайших метеорологических станциях:

Погода в Kuala Lumpur Int Airport (Малайзия) (48 км)
Погода в Malacca (Малайзия) (122 км)
Погода в Cameron Highlands (Малайзия) (151 км)
Погода в Sitiawan (Малайзия) (155 км)
Погода в Ipoh (Малайзия) (169 км)
Погода в Kuantan (Малайзия) (198 км)
Погода в Penang (Малайзия) (282 км)
Погода в Johore Bharu / Senai (Малайзия) (288 км)
Погода в Butterworth Air Base (Малайзия) (292 км)
Погода в Pekanbaru (Индонезия) (295 км)

Пояснения к столбцам:

Ветер - указаны скорость ветра в м/с - средняя за 10 мин, порывы в срок и между сроками (в фигурных скобках) и направление, откуда дует ветер: С - северный, СВ - северо-восточный, В - восточный, ЮВ - юго-восточный, Ю - южный, ЮЗ - юго-западный, З - западный, СЗ - северо-западный.
Видимость - горизонтальная дальность видимости в метрах или километрах. При видимости от 1 до 10 км при отсутствии осадков обычно наблюдается дымка, при ухудшении видимости до 1 км и менее - туман. В сухую погоду видимость может ухудшаться дымом, пылью или мглою.
Явления - указаны атмосферные явления, наблюдавшиеся в срок или в последний час перед сроком; фигурными скобками обозначены явления, наблюдавшиеся между сроками (за 1-3 часа до срока); квадратными скобками обозначены град или гололедные отложения с указанием их диаметра в мм.
Облачность - указаны через наклонную черту общая и нижняя облачность в баллах и высота нижней границы облаков в метрах; квадратными скобками обозначены формы облаков: Ci - перистые, Cs - перисто-слоистые, Cc - перисто-кучевые, Ac - высококучевые, As - высокослоистые, Sc - слоисто-кучевые, Ns - слоисто-дождевые, Cu - кучевые, Cb - кучево-дождевые. Подробнее классификацию облаков см. в Атласе облаков (PDF).
T - Температура воздуха - температура, измеренная на высоте 2 м над землей.
Td - Температура точки росы - температура, при понижении до которой содержащийся в воздухе водяной пар достигнет насыщения.
f - Относительная влажность воздуха - влажноcть воздуха, измеренная на высоте 2 м над землей.
Te - Эффективная температура - температура, которую ощущает одетый по сезону человек в тени. Характеристика душности погоды. При расчете учитывается влияние влажности воздуха и скорости ветра на теплоощущения человека.
Tes - Эффективная температура на солнце - температура, которую ощущает человек, с поправкой на солнечный нагрев. Характеристика знойности погоды. Зависит от высоты солнца над горизонтом, облачности и скорости ветра. Ночью, в пасмурную погоду, а также при ветре 12 м/с и более поправка равна нулю.
P - Атмосферное давление - приведенное к уровню моря атмосферное давление.
Po - Атмосферное давление - измеренное на уровне метеостанции атмосферное давление.
Tmin - Минимальная температура - минимум температуры воздуха на высоте 2 м над землей.
Tmax - Максимальная температура - максимум температуры воздуха на высоте 2 м над землей.
R - Количество осадков - Количество выпавших осадков за период времени, мм. При наведении курсора мыши на число - период времени, за который выпало указанное количество осадков.
R24 - Количество осадков - Количество выпавших осадков за 24 часа, мм.
S - Снежный покров - Высота снежного покрова, см. При наведении курсора мыши на число - состояние снежного покрова и степень покрытия местности в баллах.